Time,TemperatureF,DewpointF,PressureIn,WindDirection,WindDirectionDegrees,WindSpeedMPH,WindSpeedGustMPH,Humidity,HourlyPrecipIn,Conditions,Clouds,dailyrainin,SoftwareType,DateUTC
2013-03-09 00:02:00,59.2,58.1,29.99,SSE,165,16.0,21.0,96,0.00,,,0.00,Wunderground v.1.15,2013-03-09 06:02:00,
2013-03-09 00:08:00,59.1,58.2,29.99,South,190,17.0,21.0,97,0.00,,,0.00,Wunderground v.1.15,2013-03-09 06:08:00,
2013-03-09 00:14:00,59.0,58.2,29.99,South,188,15.0,17.0,97,0.00,,,0.00,Wunderground v.1.15,2013-03-09 06:14:00,
2013-03-09 00:20:00,59.0,58.2,29.99,SE,137,15.0,15.0,97,0.00,,,0.00,Wunderground v.1.15,2013-03-09 06:20:00,
2013-03-09 00:26:00,58.9,58.3,29.99,SE,129,15.0,16.0,98,0.00,,,0.00,Wunderground v.1.15,2013-03-09 06:26:00,
2013-03-09 00:32:00,58.9,58.3,29.98,SSE,163,15.0,15.0,98,0.00,,,0.00,Wunderground v.1.15,2013-03-09 06:32:00,
2013-03-09 00:38:00,58.8,58.2,29.97,SE,130,14.0,15.0,98,0.00,,,0.00,Wunderground v.1.15,2013-03-09 06:38:00,
2013-03-09 00:44:00,58.8,58.2,29.97,South,174,16.0,18.0,98,0.00,,,0.00,Wunderground v.1.15,2013-03-09 06:44:00,
2013-03-09 00:50:00,58.8,58.2,29.97,SSE,159,17.0,17.0,98,0.00,,,0.00,Wunderground v.1.15,2013-03-09 06:50:00,
2013-03-09 00:56:00,58.8,58.2,29.97,South,179,17.0,20.0,98,0.00,,,0.00,Wunderground v.1.15,2013-03-09 06:56:00,
2013-03-09 01:02:00,58.8,58.5,29.96,SE,137,17.0,17.0,99,0.00,,,0.00,Wunderground v.1.15,2013-03-09 07:02:00,
2013-03-09 01:08:00,58.8,58.5,29.96,SE,138,16.0,17.0,99,0.00,,,0.00,Wunderground v.1.15,2013-03-09 07:08:00,
2013-03-09 01:14:00,58.8,58.5,29.96,SSE,162,16.0,16.0,99,0.00,,,0.00,Wunderground v.1.15,2013-03-09 07:14:00,
2013-03-09 01:20:00,58.8,58.5,29.96,SE,140,16.0,16.0,99,0.00,,,0.00,Wunderground v.1.15,2013-03-09 07:20:00,
2013-03-09 01:26:00,58.9,58.6,29.95,SE,131,16.0,22.0,99,0.00,,,0.00,Wunderground v.1.15,2013-03-09 07:26:00,
2013-03-09 01:32:00,58.9,58.6,29.95,SSE,160,16.0,20.0,99,0.00,,,0.00,Wunderground v.1.15,2013-03-09 07:32:00,
2013-03-09 01:38:00,58.9,58.6,29.95,SSE,167,17.0,22.0,99,0.00,,,0.00,Wunderground v.1.15,2013-03-09 07:38:00,
2013-03-09 01:44:00,58.9,58.6,29.95,SE,132,16.0,17.0,99,0.00,,,0.00,Wunderground v.1.15,2013-03-09 07:44:00,
2013-03-09 01:50:00,58.9,58.6,29.94,SSE,165,15.0,18.0,99,0.00,,,0.00,Wunderground v.1.15,2013-03-09 07:50:00,
2013-03-09 01:56:00,58.9,58.6,29.94,SSE,151,16.0,24.0,99,0.00,,,0.00,Wunderground v.1.15,2013-03-09 07:56:00,
2013-03-09 02:02:00,58.9,58.6,29.94,SSE,152,14.0,15.0,99,0.00,,,0.00,Wunderground v.1.15,2013-03-09 08:02:00,
2013-03-09 02:08:00,59.0,58.7,29.94,SE,143,13.0,15.0,99,0.00,,,0.00,Wunderground v.1.15,2013-03-09 08:08:00,
2013-03-09 02:14:00,59.0,58.7,29.93,SE,141,13.0,17.0,99,0.00,,,0.00,Wunderground v.1.15,2013-03-09 08:14:00,
2013-03-09 02:20:00,59.0,58.7,29.93,South,178,13.0,13.0,99,0.00,,,0.00,Wunderground v.1.15,2013-03-09 08:20:00,
2013-03-09 02:26:00,59.1,58.8,29.93,SE,132,14.0,18.0,99,0.00,,,0.00,Wunderground v.1.15,2013-03-09 08:26:00,
2013-03-09 02:32:00,59.1,58.8,29.92,South,173,15.0,23.0,99,0.00,,,0.00,Wunderground v.1.15,2013-03-09 08:32:00,
2013-03-09 02:38:00,59.1,58.8,29.92,SSE,162,16.0,23.0,99,0.00,,,0.00,Wunderground v.1.15,2013-03-09 08:38:00,
2013-03-09 02:44:00,59.1,58.8,29.92,South,172,15.0,19.0,99,0.00,,,0.00,Wunderground v.1.15,2013-03-09 08:44:00,
2013-03-09 02:50:00,59.1,58.8,29.92,SE,135,15.0,24.0,99,0.00,,,0.00,Wunderground v.1.15,2013-03-09 08:50:00,
2013-03-09 02:56:00,59.1,58.8,29.91,SSE,160,16.0,24.0,99,0.00,,,0.00,Wunderground v.1.15,2013-03-09 08:56:00,
2013-03-09 03:02:00,59.1,58.8,29.91,SSE,155,15.0,20.0,99,0.00,,,0.00,Wunderground v.1.15,2013-03-09 09:02:00,
2013-03-09 03:08:00,59.2,58.9,29.91,SE,131,16.0,23.0,99,0.00,,,0.00,Wunderground v.1.15,2013-03-09 09:08:00,
2013-03-09 03:14:00,59.2,58.9,29.90,SSE,162,17.0,18.0,99,0.00,,,0.00,Wunderground v.1.15,2013-03-09 09:14:00,
2013-03-09 03:20:00,59.2,58.9,29.90,South,181,15.0,18.0,99,0.00,,,0.00,Wunderground v.1.15,2013-03-09 09:20:00,
2013-03-09 03:26:00,59.3,59.0,29.90,SSE,148,14.0,18.0,99,0.00,,,0.00,Wunderground v.1.15,2013-03-09 09:26:00,
2013-03-09 03:32:00,59.4,59.1,29.90,SE,128,15.0,15.0,99,0.00,,,0.00,Wunderground v.1.15,2013-03-09 09:32:00,
2013-03-09 03:38:00,59.4,59.1,29.90,SE,146,15.0,17.0,99,0.00,,,0.00,Wunderground v.1.15,2013-03-09 09:38:00,
2013-03-09 03:44:00,59.5,59.2,29.90,SW,222,14.0,19.0,99,0.00,,,0.00,Wunderground v.1.15,2013-03-09 09:44:00,
2013-03-09 03:50:00,59.5,59.2,29.89,SE,143,16.0,16.0,99,0.00,,,0.00,Wunderground v.1.15,2013-03-09 09:50:00,
2013-03-09 03:56:00,59.5,59.2,29.89,SSE,157,16.0,16.0,99,0.00,,,0.00,Wunderground v.1.15,2013-03-09 09:56:00,
2013-03-09 04:02:00,59.6,59.3,29.89,South,184,14.0,14.0,99,0.00,,,0.00,Wunderground v.1.15,2013-03-09 10:02:00,
2013-03-09 04:08:00,59.6,59.3,29.89,SSE,158,13.0,14.0,99,0.00,,,0.00,Wunderground v.1.15,2013-03-09 10:08:00,
2013-03-09 04:14:00,59.7,59.4,29.89,SSE,153,13.0,16.0,99,0.00,,,0.00,Wunderground v.1.15,2013-03-09 10:14:00,
2013-03-09 04:20:00,59.7,59.4,29.89,SSE,148,13.0,15.0,99,0.00,,,0.00,Wunderground v.1.15,2013-03-09 10:20:00,
2013-03-09 04:26:00,59.7,59.4,29.88,SE,131,14.0,16.0,99,0.00,,,0.00,Wunderground v.1.15,2013-03-09 10:26:00,
2013-03-09 04:32:00,59.8,59.5,29.88,SSE,155,14.0,14.0,99,0.00,,,0.00,Wunderground v.1.15,2013-03-09 10:32:00,
2013-03-09 04:38:00,59.9,59.6,29.88,SSE,162,15.0,15.0,99,0.00,,,0.00,Wunderground v.1.15,2013-03-09 10:38:00,
2013-03-09 04:44:00,59.9,59.6,29.87,South,176,15.0,20.0,99,0.00,,,0.00,Wunderground v.1.15,2013-03-09 10:44:00,
2013-03-09 04:50:00,60.0,59.7,29.88,WSW,246,15.0,15.0,99,0.00,,,0.00,Wunderground v.1.15,2013-03-09 10:50:00,
2013-03-09 04:56:00,60.0,60.0,29.88,SSE,150,15.0,25.0,100,0.00,,,0.00,Wunderground v.1.15,2013-03-09 10:56:00,
2013-03-09 05:02:00,60.1,60.1,29.88,SSE,158,15.0,19.0,100,0.00,,,0.00,Wunderground v.1.15,2013-03-09 11:02:00,
2013-03-09 05:08:00,60.1,60.1,29.88,SE,146,14.0,19.0,100,0.00,,,0.00,Wunderground v.1.15,2013-03-09 11:08:00,
2013-03-09 05:14:00,60.2,60.2,29.88,SSE,148,15.0,19.0,100,0.00,,,0.00,Wunderground v.1.15,2013-03-09 11:14:00,
2013-03-09 05:20:00,60.3,60.3,29.88,South,172,15.0,15.0,100,0.00,,,0.00,Wunderground v.1.15,2013-03-09 11:20:00,
2013-03-09 05:26:00,60.3,60.3,29.89,SSE,159,15.0,19.0,100,0.00,,,0.00,Wunderground v.1.15,2013-03-09 11:26:00,
2013-03-09 05:32:00,60.4,60.4,29.88,SSE,163,17.0,20.0,100,0.00,,,0.00,Wunderground v.1.15,2013-03-09 11:32:00,
2013-03-09 05:38:00,60.4,60.4,29.87,SSE,163,16.0,20.0,100,0.00,,,0.00,Wunderground v.1.15,2013-03-09 11:38:00,
2013-03-09 05:44:00,60.4,60.4,29.88,ESE,122,14.0,16.0,100,0.00,,,0.00,Wunderground v.1.15,2013-03-09 11:44:00,
2013-03-09 05:50:00,60.5,60.5,29.88,SE,144,16.0,16.0,100,0.00,,,0.00,Wunderground v.1.15,2013-03-09 11:50:00,
2013-03-09 05:56:00,60.6,60.6,29.88,SSE,167,16.0,24.0,100,0.00,,,0.00,Wunderground v.1.15,2013-03-09 11:56:00,
2013-03-09 06:02:00,60.6,60.6,29.87,SE,143,15.0,18.0,100,0.00,,,0.00,Wunderground v.1.15,2013-03-09 12:02:00,
2013-03-09 06:08:00,60.6,60.6,29.88,SSE,162,16.0,22.0,100,0.00,,,0.00,Wunderground v.1.15,2013-03-09 12:08:00,
2013-03-09 06:14:00,60.6,60.6,29.88,SSE,165,16.0,17.0,100,0.00,,,0.00,Wunderground v.1.15,2013-03-09 12:14:00,
2013-03-09 06:20:00,60.7,60.7,29.88,SSE,150,15.0,15.0,100,0.00,,,0.00,Wunderground v.1.15,2013-03-09 12:20:00,
2013-03-09 06:26:00,60.7,60.7,29.88,SSE,163,16.0,24.0,100,0.00,,,0.00,Wunderground v.1.15,2013-03-09 12:26:00,
2013-03-09 06:32:00,60.7,60.7,29.88,SSE,148,16.0,16.0,100,0.00,,,0.00,Wunderground v.1.15,2013-03-09 12:32:00,
2013-03-09 06:38:00,60.8,60.8,29.88,SE,145,15.0,23.0,100,0.00,,,0.00,Wunderground v.1.15,2013-03-09 12:38:00,
2013-03-09 06:44:00,60.8,60.8,29.88,SSE,165,16.0,18.0,100,0.00,,,0.00,Wunderground v.1.15,2013-03-09 12:44:00,
2013-03-09 06:50:00,60.9,60.9,29.88,South,169,15.0,15.0,100,0.00,,,0.00,Wunderground v.1.15,2013-03-09 12:50:00,
2013-03-09 06:56:00,60.9,60.9,29.88,SSE,156,14.0,25.0,100,0.00,,,0.00,Wunderground v.1.15,2013-03-09 12:56:00,
2013-03-09 07:02:00,60.9,60.9,29.87,South,170,15.0,25.0,100,0.00,,,0.00,Wunderground v.1.15,2013-03-09 13:02:00,
2013-03-09 07:08:00,60.9,60.9,29.87,SSE,166,14.0,25.0,100,0.00,,,0.00,Wunderground v.1.15,2013-03-09 13:08:00,
2013-03-09 07:14:00,61.0,61.0,29.87,South,184,16.0,25.0,100,0.00,,,0.00,Wunderground v.1.15,2013-03-09 13:14:00,
2013-03-09 07:20:00,61.0,61.0,29.87,SSE,165,14.0,25.0,100,0.00,,,0.00,Wunderground v.1.15,2013-03-09 13:20:00,
2013-03-09 07:26:00,61.1,61.1,29.87,SE,146,14.0,25.0,100,0.00,,,0.00,Wunderground v.1.15,2013-03-09 13:26:00,
2013-03-09 07:32:00,61.1,61.1,29.87,SSE,150,15.0,25.0,100,0.00,,,0.00,Wunderground v.1.15,2013-03-09 13:32:00,
2013-03-09 07:38:00,61.1,61.1,29.88,SSE,165,14.0,25.0,100,0.00,,,0.00,Wunderground v.1.15,2013-03-09 13:38:00,
2013-03-09 07:44:00,61.2,61.2,29.88,SSE,160,15.0,25.0,100,0.00,,,0.00,Wunderground v.1.15,2013-03-09 13:44:00,
2013-03-09 07:50:00,61.2,61.2,29.88,South,186,15.0,15.0,100,0.00,,,0.00,Wunderground v.1.15,2013-03-09 13:50:00,
2013-03-09 07:56:00,61.3,61.3,29.88,SE,141,15.0,25.0,100,0.00,,,0.00,Wunderground v.1.15,2013-03-09 13:56:00,
2013-03-09 08:02:00,61.3,61.3,29.88,SSE,166,14.0,25.0,100,0.00,,,0.00,Wunderground v.1.15,2013-03-09 14:02:00,
2013-03-09 08:08:00,61.4,61.4,29.88,SE,143,15.0,25.0,100,0.00,,,0.00,Wunderground v.1.15,2013-03-09 14:08:00,
2013-03-09 08:14:00,61.4,61.4,29.88,SSE,148,15.0,25.0,100,0.00,,,0.00,Wunderground v.1.15,2013-03-09 14:14:00,
2013-03-09 08:20:00,61.5,61.5,29.88,SE,131,14.0,25.0,100,0.00,,,0.00,Wunderground v.1.15,2013-03-09 14:20:00,
2013-03-09 08:26:00,61.5,61.5,29.88,SE,134,14.0,25.0,100,0.00,,,0.00,Wunderground v.1.15,2013-03-09 14:26:00,
2013-03-09 08:32:00,61.5,61.5,29.88,SE,134,14.0,25.0,100,0.00,,,0.00,Wunderground v.1.15,2013-03-09 14:32:00,
2013-03-09 08:38:00,61.5,61.5,29.88,SSE,160,15.0,25.0,100,0.00,,,0.00,Wunderground v.1.15,2013-03-09 14:38:00,
2013-03-09 08:44:00,61.5,61.5,29.88,SE,139,14.0,25.0,100,0.00,,,0.00,Wunderground v.1.15,2013-03-09 14:44:00,
2013-03-09 08:50:00,61.6,61.6,29.88,SSE,150,14.0,25.0,100,0.00,,,0.00,Wunderground v.1.15,2013-03-09 14:50:00,
2013-03-09 08:56:00,61.6,61.6,29.88,SSW,205,14.0,25.0,100,0.00,,,0.00,Wunderground v.1.15,2013-03-09 14:56:00,
2013-03-09 09:02:00,61.6,61.6,29.87,SSE,155,14.0,25.0,100,0.00,,,0.00,Wunderground v.1.15,2013-03-09 15:02:00,
2013-03-09 09:08:00,61.6,61.6,29.87,SE,145,14.0,25.0,100,0.00,,,0.00,Wunderground v.1.15,2013-03-09 15:08:00,
2013-03-09 09:14:00,61.6,61.6,29.87,SSE,167,13.0,25.0,100,0.00,,,0.00,Wunderground v.1.15,2013-03-09 15:14:00,
2013-03-09 09:20:00,61.7,61.7,29.87,SSE,162,14.0,14.0,100,0.00,,,0.00,Wunderground v.1.15,2013-03-09 15:20:00,
2013-03-09 09:26:00,61.7,61.7,29.86,SSE,161,14.0,25.0,100,0.00,,,0.00,Wunderground v.1.15,2013-03-09 15:26:00,
2013-03-09 09:32:00,61.8,61.8,29.86,SSW,207,13.0,25.0,100,0.00,,,0.00,Wunderground v.1.15,2013-03-09 15:32:00,
2013-03-09 09:38:00,61.8,61.8,29.87,SSE,150,14.0,25.0,100,0.00,,,0.00,Wunderground v.1.15,2013-03-09 15:38:00,
2013-03-09 09:44:00,61.9,61.9,29.87,SE,141,14.0,25.0,100,0.00,,,0.00,Wunderground v.1.15,2013-03-09 15:44:00,
2013-03-09 09:50:00,61.9,61.9,29.86,SSE,154,14.0,25.0,100,0.00,,,0.00,Wunderground v.1.15,2013-03-09 15:50:00,
2013-03-09 09:56:00,62.0,62.0,29.86,SSE,165,15.0,25.0,100,0.00,,,0.00,Wunderground v.1.15,2013-03-09 15:56:00,
2013-03-09 10:02:00,62.1,62.1,29.87,SE,135,15.0,20.0,100,0.00,,,0.00,Wunderground v.1.15,2013-03-09 16:02:00,
2013-03-09 10:08:00,62.1,62.1,29.86,SSE,166,16.0,25.0,100,0.00,,,0.00,Wunderground v.1.15,2013-03-09 16:08:00,
2013-03-09 10:14:00,62.2,62.2,29.86,SE,146,16.0,25.0,100,0.00,,,0.00,Wunderground v.1.15,2013-03-09 16:14:00,
2013-03-09 10:20:00,62.2,62.2,29.86,SE,140,15.0,15.0,100,0.00,,,0.00,Wunderground v.1.15,2013-03-09 16:20:00,
2013-03-09 10:26:00,62.2,62.2,29.85,South,181,15.0,25.0,100,0.00,,,0.00,Wunderground v.1.15,2013-03-09 16:26:00,
2013-03-09 10:32:00,62.2,62.2,29.85,SSE,160,14.0,16.0,100,0.00,,,0.00,Wunderground v.1.15,2013-03-09 16:32:00,
2013-03-09 10:38:00,62.3,62.3,29.85,SSE,160,15.0,25.0,100,0.00,,,0.00,Wunderground v.1.15,2013-03-09 16:38:00,
2013-03-09 10:44:00,62.4,62.4,29.86,SE,139,15.0,25.0,100,0.00,,,0.00,Wunderground v.1.15,2013-03-09 16:44:00,
2013-03-09 10:50:00,62.5,62.5,29.86,SSE,156,15.0,25.0,100,0.00,,,0.00,Wunderground v.1.15,2013-03-09 16:50:00,
2013-03-09 10:56:00,62.5,62.5,29.86,SSE,156,15.0,25.0,100,0.00,,,0.00,Wunderground v.1.15,2013-03-09 16:56:00,
2013-03-09 11:02:00,62.5,62.5,29.86,SSE,159,16.0,16.0,100,0.00,,,0.00,Wunderground v.1.15,2013-03-09 17:02:00,
2013-03-09 11:08:00,62.5,62.5,29.86,South,172,15.0,25.0,100,0.00,,,0.00,Wunderground v.1.15,2013-03-09 17:08:00,
2013-03-09 11:14:00,62.5,62.5,29.86,SW,218,15.0,25.0,100,0.00,,,0.00,Wunderground v.1.15,2013-03-09 17:14:00,
2013-03-09 11:20:00,62.5,62.5,29.86,SE,141,15.0,25.0,100,0.00,,,0.00,Wunderground v.1.15,2013-03-09 17:20:00,
2013-03-09 11:26:00,62.5,62.5,29.85,South,181,14.0,25.0,100,0.00,,,0.00,Wunderground v.1.15,2013-03-09 17:26:00,
2013-03-09 11:32:00,62.5,62.5,29.85,SSE,155,16.0,25.0,100,0.00,,,0.00,Wunderground v.1.15,2013-03-09 17:32:00,
2013-03-09 11:38:00,62.5,62.5,29.85,SSE,163,16.0,25.0,100,0.00,,,0.00,Wunderground v.1.15,2013-03-09 17:38:00,
2013-03-09 11:44:00,62.6,62.6,29.85,SE,146,15.0,25.0,100,0.00,,,0.00,Wunderground v.1.15,2013-03-09 17:44:00,
2013-03-09 11:50:00,62.6,62.6,29.84,SSE,164,14.0,25.0,100,0.00,,,0.00,Wunderground v.1.15,2013-03-09 17:50:00,
2013-03-09 11:56:00,62.7,62.7,29.84,SSE,165,15.0,25.0,100,0.00,,,0.00,Wunderground v.1.15,2013-03-09 17:56:00,
2013-03-09 12:02:00,62.8,62.8,29.83,SSE,160,15.0,25.0,100,0.00,,,0.00,Wunderground v.1.15,2013-03-09 18:02:00,
2013-03-09 12:08:00,62.9,62.9,29.82,SSE,162,14.0,25.0,100,0.00,,,0.00,Wunderground v.1.15,2013-03-09 18:08:00,
2013-03-09 12:14:00,62.9,62.9,29.82,SE,136,13.0,25.0,100,0.00,,,0.00,Wunderground v.1.15,2013-03-09 18:14:00,
2013-03-09 12:20:00,63.0,63.0,29.82,South,177,14.0,25.0,100,0.00,,,0.00,Wunderground v.1.15,2013-03-09 18:20:00,
2013-03-09 12:26:00,63.0,63.0,29.82,SE,146,14.0,25.0,100,0.00,,,0.00,Wunderground v.1.15,2013-03-09 18:26:00,
2013-03-09 12:32:00,63.0,63.0,29.81,SE,140,14.0,25.0,100,0.00,,,0.00,Wunderground v.1.15,2013-03-09 18:32:00,
2013-03-09 12:38:00,63.1,63.1,29.81,SE,128,15.0,25.0,100,0.00,,,0.00,Wunderground v.1.15,2013-03-09 18:38:00,
2013-03-09 12:44:00,63.1,63.1,29.81,SSE,155,14.0,23.0,100,0.00,,,0.00,Wunderground v.1.15,2013-03-09 18:44:00,
2013-03-09 12:50:00,63.2,63.2,29.81,SSW,192,14.0,14.0,100,0.00,,,0.00,Wunderground v.1.15,2013-03-09 18:50:00,
2013-03-09 12:56:00,63.2,63.2,29.80,SSE,162,14.0,25.0,100,0.00,,,0.00,Wunderground v.1.15,2013-03-09 18:56:00,
2013-03-09 13:02:00,63.3,63.3,29.80,SSE,154,13.0,25.0,100,0.00,,,0.00,Wunderground v.1.15,2013-03-09 19:02:00,
2013-03-09 13:10:00,63.4,63.4,29.80,SE,143,13.0,13.0,100,0.00,,,0.00,Wunderground v.1.15,2013-03-09 19:10:00,
2013-03-09 13:16:00,63.5,63.5,29.80,ESE,122,13.0,25.0,100,0.00,,,0.00,Wunderground v.1.15,2013-03-09 19:16:00,
2013-03-09 13:22:00,63.6,63.6,29.79,SSE,154,11.0,25.0,100,0.00,,,0.00,Wunderground v.1.15,2013-03-09 19:22:00,
2013-03-09 13:28:00,63.8,63.8,29.79,SE,134,11.0,25.0,100,0.00,,,0.00,Wunderground v.1.15,2013-03-09 19:28:00,
2013-03-09 13:34:00,64.0,64.0,29.79,SSE,159,11.0,25.0,100,0.00,,,0.00,Wunderground v.1.15,2013-03-09 19:34:00,
2013-03-09 13:40:00,64.2,64.2,29.79,South,187,10.0,25.0,100,0.00,,,0.00,Wunderground v.1.15,2013-03-09 19:40:00,
2013-03-09 13:46:00,64.2,64.2,29.78,SSE,162,11.0,25.0,100,0.00,,,0.00,Wunderground v.1.15,2013-03-09 19:46:00,
2013-03-09 13:52:00,64.2,64.2,29.78,SSE,154,11.0,25.0,100,0.00,,,0.00,Wunderground v.1.15,2013-03-09 19:52:00,
2013-03-09 13:58:00,64.4,64.4,29.78,SE,141,11.0,25.0,100,0.00,,,0.00,Wunderground v.1.15,2013-03-09 19:58:00,
2013-03-09 14:04:00,64.6,64.6,29.76,SSE,165,10.0,25.0,100,0.00,,,0.00,Wunderground v.1.15,2013-03-09 20:04:00,
2013-03-09 14:10:00,64.6,64.6,29.76,ESE,105,12.0,12.0,100,0.00,,,0.00,Wunderground v.1.15,2013-03-09 20:10:00,
2013-03-09 14:16:00,64.9,64.9,29.75,SSE,154,12.0,25.0,100,0.00,,,0.00,Wunderground v.1.15,2013-03-09 20:16:00,
2013-03-09 14:22:00,64.9,64.9,29.75,South,169,11.0,25.0,100,0.00,,,0.00,Wunderground v.1.15,2013-03-09 20:22:00,
2013-03-09 14:28:00,64.9,64.9,29.75,South,170,10.0,25.0,100,0.00,,,0.00,Wunderground v.1.15,2013-03-09 20:28:00,
2013-03-09 14:34:00,65.0,65.0,29.75,South,185,10.0,25.0,100,0.00,,,0.00,Wunderground v.1.15,2013-03-09 20:34:00,
2013-03-09 14:40:00,65.1,65.1,29.74,SE,145,9.0,25.0,100,0.00,,,0.00,Wunderground v.1.15,2013-03-09 20:40:00,
2013-03-09 14:46:00,65.4,65.4,29.74,South,172,10.0,25.0,100,0.00,,,0.00,Wunderground v.1.15,2013-03-09 20:46:00,
2013-03-09 14:52:00,65.8,65.8,29.74,ESE,117,10.0,25.0,100,0.00,,,0.00,Wunderground v.1.15,2013-03-09 20:52:00,
2013-03-09 14:58:00,65.8,65.8,29.73,South,188,9.0,25.0,100,0.00,,,0.00,Wunderground v.1.15,2013-03-09 20:58:00,
2013-03-09 15:04:00,66.0,66.0,29.73,SSE,155,9.0,25.0,100,0.00,,,0.00,Wunderground v.1.15,2013-03-09 21:04:00,
2013-03-09 15:10:00,66.0,66.0,29.73,SE,143,8.0,8.0,100,0.00,,,0.00,Wunderground v.1.15,2013-03-09 21:10:00,
2013-03-09 15:16:00,66.2,65.9,29.73,SSE,159,9.0,25.0,99,0.00,,,0.00,Wunderground v.1.15,2013-03-09 21:16:00,
2013-03-09 15:22:00,66.2,65.9,29.73,SE,128,9.0,25.0,99,0.00,,,0.00,Wunderground v.1.15,2013-03-09 21:22:00,
2013-03-09 15:28:00,66.2,65.9,29.72,SSE,147,9.0,25.0,99,0.00,,,0.00,Wunderground v.1.15,2013-03-09 21:28:00,
2013-03-09 15:34:00,66.3,66.0,29.72,SE,134,9.0,25.0,99,0.00,,,0.00,Wunderground v.1.15,2013-03-09 21:34:00,
2013-03-09 15:40:00,66.8,66.5,29.72,SSE,159,10.0,25.0,99,0.00,,,0.00,Wunderground v.1.15,2013-03-09 21:40:00,
2013-03-09 15:46:00,67.2,66.9,29.72,SE,135,10.0,25.0,99,0.00,,,0.00,Wunderground v.1.15,2013-03-09 21:46:00,
2013-03-09 15:52:00,67.3,66.7,29.72,South,186,10.0,25.0,98,0.00,,,0.00,Wunderground v.1.15,2013-03-09 21:52:00,
2013-03-09 15:58:00,67.3,66.7,29.71,SE,127,10.0,25.0,98,0.00,,,0.00,Wunderground v.1.15,2013-03-09 21:58:00,
2013-03-09 16:04:00,67.6,67.0,29.71,SSE,161,12.0,25.0,98,0.00,,,0.00,Wunderground v.1.15,2013-03-09 22:04:00,
2013-03-09 16:10:00,68.0,67.4,29.71,South,173,12.0,12.0,98,0.00,,,0.00,Wunderground v.1.15,2013-03-09 22:10:00,
2013-03-09 16:16:00,68.3,67.4,29.70,SSE,167,10.0,25.0,97,0.00,,,0.00,Wunderground v.1.15,2013-03-09 22:16:00,
2013-03-09 16:22:00,68.6,67.4,29.70,SSE,153,10.0,25.0,96,0.00,,,0.00,Wunderground v.1.15,2013-03-09 22:22:00,
2013-03-09 16:28:00,68.9,66.8,29.71,SE,135,9.0,25.0,93,0.00,,,0.00,Wunderground v.1.15,2013-03-09 22:28:00,
2013-03-09 16:34:00,68.8,66.4,29.70,SE,127,9.0,25.0,92,0.00,,,0.00,Wunderground v.1.15,2013-03-09 22:34:00,
2013-03-09 16:40:00,69.0,66.3,29.70,SE,144,10.0,10.0,91,0.00,,,0.00,Wunderground v.1.15,2013-03-09 22:40:00,
2013-03-09 16:46:00,69.4,66.3,29.70,SSE,166,10.0,25.0,90,0.00,,,0.00,Wunderground v.1.15,2013-03-09 22:46:00,
2013-03-09 16:52:00,69.2,65.8,29.70,SE,146,11.0,25.0,89,0.00,,,0.00,Wunderground v.1.15,2013-03-09 22:52:00,
2013-03-09 16:58:00,69.0,65.6,29.70,SE,134,12.0,25.0,89,0.00,,,0.00,Wunderground v.1.15,2013-03-09 22:58:00,
2013-03-09 17:04:00,68.9,65.8,29.70,SE,135,13.0,25.0,90,0.00,,,0.00,Wunderground v.1.15,2013-03-09 23:04:00,
2013-03-09 17:10:00,69.0,65.6,29.70,SE,126,12.0,12.0,89,0.00,,,0.00,Wunderground v.1.15,2013-03-09 23:10:00,
2013-03-09 17:16:00,68.9,65.5,29.70,SE,135,10.0,25.0,89,0.00,,,0.00,Wunderground v.1.15,2013-03-09 23:16:00,
2013-03-09 17:22:00,68.8,65.4,29.69,SSE,158,10.0,17.0,89,0.00,,,0.00,Wunderground v.1.15,2013-03-09 23:22:00,
2013-03-09 17:28:00,68.5,65.1,29.70,SSE,158,11.0,25.0,89,0.00,,,0.00,Wunderground v.1.15,2013-03-09 23:28:00,
2013-03-09 17:34:00,68.2,64.8,29.70,SSE,163,12.0,25.0,89,0.00,,,0.00,Wunderground v.1.15,2013-03-09 23:34:00,
2013-03-09 17:40:00,68.1,65.1,29.70,ESE,120,11.0,25.0,90,0.00,,,0.00,Wunderground v.1.15,2013-03-09 23:40:00,
2013-03-09 17:46:00,67.9,64.9,29.70,SSE,158,11.0,25.0,90,0.00,,,0.00,Wunderground v.1.15,2013-03-09 23:46:00,
2013-03-09 17:52:00,67.7,64.7,29.69,SE,145,11.0,25.0,90,0.00,,,0.00,Wunderground v.1.15,2013-03-09 23:52:00,
2013-03-09 17:58:00,67.5,64.8,29.69,SE,145,11.0,25.0,91,0.00,,,0.00,Wunderground v.1.15,2013-03-09 23:58:00,
2013-03-09 18:04:00,67.3,64.6,29.69,ESE,120,10.0,25.0,91,0.00,,,0.00,Wunderground v.1.15,2013-03-10 00:04:00,
2013-03-09 18:10:00,67.2,64.5,29.69,SE,136,10.0,25.0,91,0.00,,,0.00,Wunderground v.1.15,2013-03-10 00:10:00,
2013-03-09 18:16:00,67.1,64.4,29.69,SE,143,11.0,25.0,91,0.00,,,0.00,Wunderground v.1.15,2013-03-10 00:16:00,
2013-03-09 18:22:00,67.0,64.3,29.70,SSE,155,11.0,25.0,91,0.00,,,0.00,Wunderground v.1.15,2013-03-10 00:22:00,
2013-03-09 18:28:00,66.9,64.2,29.70,SE,141,10.0,25.0,91,0.00,,,0.00,Wunderground v.1.15,2013-03-10 00:28:00,
2013-03-09 18:34:00,66.6,64.2,29.69,ESE,117,10.0,25.0,92,0.00,,,0.00,Wunderground v.1.15,2013-03-10 00:34:00,
2013-03-09 18:40:00,66.5,64.1,29.70,SE,143,13.0,25.0,92,0.00,,,0.00,Wunderground v.1.15,2013-03-10 00:40:00,
2013-03-09 18:46:00,66.3,63.9,29.69,SSE,153,11.0,25.0,92,0.00,,,0.00,Wunderground v.1.15,2013-03-10 00:46:00,
2013-03-09 18:52:00,66.0,63.9,29.68,SSE,167,11.0,25.0,93,0.00,,,0.00,Wunderground v.1.15,2013-03-10 00:52:00,
2013-03-09 18:58:00,65.7,63.6,29.68,South,181,12.0,25.0,93,0.00,,,0.00,Wunderground v.1.15,2013-03-10 00:58:00,
2013-03-09 19:04:00,65.6,63.8,29.67,SE,136,13.0,25.0,94,0.00,,,0.00,Wunderground v.1.15,2013-03-10 01:04:00,
2013-03-09 19:10:00,65.4,63.6,29.67,SSE,157,14.0,14.0,94,0.00,,,0.00,Wunderground v.1.15,2013-03-10 01:10:00,
2013-03-09 19:16:00,65.3,63.5,29.67,SSW,207,12.0,25.0,94,0.00,,,0.00,Wunderground v.1.15,2013-03-10 01:16:00,
2013-03-09 19:22:00,65.1,63.6,29.66,SE,144,11.0,25.0,95,0.00,,,0.00,Wunderground v.1.15,2013-03-10 01:22:00,
2013-03-09 19:28:00,65.0,63.5,29.67,ESE,117,11.0,25.0,95,0.00,,,0.00,Wunderground v.1.15,2013-03-10 01:28:00,
2013-03-09 19:34:00,64.9,63.4,29.66,SE,145,11.0,25.0,95,0.00,,,0.00,Wunderground v.1.15,2013-03-10 01:34:00,
2013-03-09 19:40:00,64.8,63.3,29.66,SSE,160,14.0,25.0,95,0.00,,,0.00,Wunderground v.1.15,2013-03-10 01:40:00,
2013-03-09 19:46:00,64.7,63.5,29.66,SE,131,15.0,25.0,96,0.00,,,0.00,Wunderground v.1.15,2013-03-10 01:46:00,
2013-03-09 19:58:00,64.4,63.2,29.65,SSE,159,13.0,25.0,96,0.00,,,0.00,Wunderground v.1.15,2013-03-10 01:58:00,
2013-03-09 20:04:00,64.2,63.3,29.67,South,185,14.0,25.0,97,0.00,,,0.00,Wunderground v.1.15,2013-03-10 02:04:00,
2013-03-09 20:14:00,63.9,63.0,29.65,SSE,153,13.0,25.0,97,0.00,,,0.00,Wunderground v.1.15,2013-03-10 02:14:00,
2013-03-09 20:20:00,63.8,63.2,29.63,SE,143,14.0,14.0,98,0.00,,,0.00,Wunderground v.1.15,2013-03-10 02:20:00,
2013-03-09 20:32:00,63.5,62.9,29.62,SSE,149,14.0,25.0,98,0.00,,,0.00,Wunderground v.1.15,2013-03-10 02:32:00,
2013-03-09 20:38:00,63.4,62.8,29.63,ESE,114,15.0,25.0,98,0.00,,,0.00,Wunderground v.1.15,2013-03-10 02:38:00,
2013-03-09 20:56:00,63.2,62.9,29.65,ESE,119,16.0,25.0,99,0.00,,,0.00,Wunderground v.1.15,2013-03-10 02:56:00,
2013-03-09 21:08:00,63.1,62.8,29.66,SSE,156,14.0,25.0,99,0.00,,,0.00,Wunderground v.1.15,2013-03-10 03:08:00,
2013-03-09 21:14:00,63.1,62.8,29.66,SE,135,14.0,25.0,99,0.00,,,0.00,Wunderground v.1.15,2013-03-10 03:14:00,
2013-03-09 21:20:00,63.0,62.7,29.66,SE,125,14.0,25.0,99,0.00,,,0.00,Wunderground v.1.15,2013-03-10 03:20:00,
2013-03-09 21:26:00,63.0,62.7,29.64,SE,131,13.0,25.0,99,0.00,,,0.00,Wunderground v.1.15,2013-03-10 03:26:00,
2013-03-09 21:32:00,62.9,62.6,29.64,SSE,150,14.0,25.0,99,0.00,,,0.00,Wunderground v.1.15,2013-03-10 03:32:00,
2013-03-09 21:42:00,62.9,62.6,29.65,South,186,14.0,25.0,99,0.00,,,0.00,Wunderground v.1.15,2013-03-10 03:42:00,
2013-03-09 21:48:00,62.8,62.5,29.65,SE,143,14.0,25.0,99,0.00,,,0.00,Wunderground v.1.15,2013-03-10 03:48:00,
2013-03-09 21:54:00,62.8,62.5,29.65,SSE,148,14.0,25.0,99,0.00,,,0.00,Wunderground v.1.15,2013-03-10 03:54:00,
2013-03-09 22:00:00,62.8,62.5,29.64,SE,129,14.0,14.0,99,0.00,,,0.00,Wunderground v.1.15,2013-03-10 04:00:00,
2013-03-09 22:06:00,62.7,62.4,29.65,SSE,150,14.0,25.0,99,0.00,,,0.00,Wunderground v.1.15,2013-03-10 04:06:00,
2013-03-09 22:12:00,62.7,62.4,29.67,South,170,13.0,25.0,99,0.00,,,0.00,Wunderground v.1.15,2013-03-10 04:12:00,
2013-03-09 22:18:00,62.8,62.5,29.65,ESE,120,12.0,25.0,99,0.00,,,0.00,Wunderground v.1.15,2013-03-10 04:18:00,
2013-03-09 22:24:00,62.8,62.5,29.67,South,187,13.0,25.0,99,0.00,,,0.00,Wunderground v.1.15,2013-03-10 04:24:00,
2013-03-09 22:30:00,62.8,62.5,29.68,SSE,155,13.0,13.0,99,0.00,,,0.00,Wunderground v.1.15,2013-03-10 04:30:00,
2013-03-09 22:36:00,62.8,62.5,29.68,SE,128,12.0,25.0,99,0.00,,,0.00,Wunderground v.1.15,2013-03-10 04:36:00,
2013-03-09 22:42:00,62.7,62.4,29.67,SSE,165,11.0,25.0,99,0.00,,,0.00,Wunderground v.1.15,2013-03-10 04:42:00,
2013-03-09 22:48:00,62.6,62.3,29.66,South,190,10.0,25.0,99,0.00,,,0.00,Wunderground v.1.15,2013-03-10 04:48:00,
2013-03-09 22:54:00,62.7,62.4,29.68,SSE,166,11.0,25.0,99,0.00,,,0.00,Wunderground v.1.15,2013-03-10 04:54:00,
2013-03-09 23:00:00,62.6,62.3,29.66,South,174,14.0,14.0,99,0.00,,,0.00,Wunderground v.1.15,2013-03-10 05:00:00,
2013-03-09 23:02:00,62.6,62.3,29.69,SSE,158,14.0,16.0,99,0.00,,,0.00,Wunderground v.1.15,2013-03-10 05:02:00,
2013-03-09 23:06:00,62.7,62.7,29.70,SSE,152,14.0,25.0,100,0.00,,,0.00,Wunderground v.1.15,2013-03-10 05:06:00,
2013-03-09 23:08:00,62.7,62.4,29.72,SSW,205,12.0,25.0,99,0.00,,,0.00,Wunderground v.1.15,2013-03-10 05:08:00,
2013-03-09 23:14:00,62.8,62.8,29.75,West,269,8.0,25.0,100,0.00,,,0.01,Wunderground v.1.15,2013-03-10 05:14:00,
2013-03-09 23:20:00,62.9,62.9,29.74,West,264,4.0,4.0,100,0.16,,,0.03,Wunderground v.1.15,2013-03-10 05:20:00,
2013-03-09 23:26:00,62.3,62.0,29.74,WNW,298,4.0,25.0,99,2.19,,,0.17,Wunderground v.1.15,2013-03-10 05:26:00,
2013-03-09 23:32:00,61.3,61.0,29.74,WNW,295,3.0,25.0,99,1.61,,,0.30,Wunderground v.1.15,2013-03-10 05:32:00,
2013-03-09 23:38:00,60.5,60.2,29.75,WNW,284,3.0,25.0,99,2.23,,,0.39,Wunderground v.1.15,2013-03-10 05:38:00,
2013-03-09 23:44:00,59.6,59.0,29.76,NNW,333,4.0,25.0,98,2.88,,,0.57,Wunderground v.1.15,2013-03-10 05:44:00,
2013-03-09 23:50:00,59.1,58.8,29.72,NNW,345,4.0,25.0,99,0.25,,,0.63,Wunderground v.1.15,2013-03-10 05:50:00,
2013-03-09 23:56:00,58.8,58.5,29.74,WSW,238,2.0,25.0,99,0.10,,,0.64,Wunderground v.1.15,2013-03-10 05:56:00,